[[{"header":{"parameterUnit":"m.s-1","parameterCategory":1,"la1":30.2991,"la2":30.254,"lo1":-89.0895,"lo2":-89.0444,"dy":0.0017,"dx":0.0017,"nx":28,"ny":28,"refTime":"2023-09-03T03:00:00:Z","depth":0,"parameterNumber":2,"parameterNumberName":"U-component_of_WINDS"},"data":[0,0,0,0,0,0,0,0,0,0,0,0,0,0,0,0,0,0,0,0,0,0,0,0,0,0,0,0,0,0,0,0,0,0,0,0,0,0,0,0,0,0,0,0,0,0,0,0,0,0,0,0,0,0,0,0,0,0,-4.0973,-4.0974,0,-4.1082,-4.1083,-4.1085,-4.1026,-4.1023,-4.102,-4.1017,-4.1124,-4.113,-4.1135,0,0,0,0,0,0,0,0,0,0,0,0,0,-4.071,-4.0715,-4.0973,-4.0974,-4.0976,-4.1082,-4.1083,-4.1085,-4.1026,-4.1023,-4.1019,-4.1016,-4.1122,-4.1129,-4.1136,0,0,0,0,0,0,0,0,0,0,0,0,0,-4.0822,-4.0717,-4.0973,-4.0959,-4.0959,-4.1082,-4.1084,-4.1085,-4.1027,-4.1023,-4.1018,-4.1014,-4.112,-4.1128,-4.1136,-4.1277,0,0,-4.1162,-4.1166,0,0,0,0,0,0,0,0,-4.0816,-4.0832,-4.096,-4.0961,-4.0961,-4.1036,-4.103,-4.1149,-4.1028,-4.1001,-4.1017,-4.1012,-4.1098,-4.1108,-4.1138,-4.1282,-4.1286,-4.1163,-4.1168,-4.1172,-4.1174,0,0,0,0,0,0,0,-4.0808,-4.0827,-4.1016,-4.0962,-4.0962,-4.0947,-4.0958,-4.1052,-4.1073,-4.1003,-4.0999,-4.1013,-4.1097,-4.113,-4.114,-4.1288,-4.1163,-4.117,-4.1175,-4.1179,-4.1552,-4.1557,0,0,0,0,0,0,-4.0802,-4.0821,-4.1013,-4.1019,-4.0876,-4.0955,-4.0967,-4.1016,-4.1072,-4.1076,-4.1017,-4.101,-4.1118,-4.113,-4.1144,-4.131,-4.1172,-4.1179,-4.1184,-4.1547,-4.1553,-4.1558,0,0,0,0,0,0,-4.0797,-4.082,-4.1008,-4.0919,-4.0942,-4.0964,-4.102,-4.1021,-4.1053,-4.1082,-4.1085,-4.1047,-4.1115,-4.1132,-4.1244,-4.1313,-4.1183,-4.1191,-4.1541,-4.1549,-4.1556,-4.1645,0,0,0,0,0,0,-4.0789,-4.0818,-4.0872,-4.0921,-4.0947,-4.1108,-4.1024,-4.1026,-4.1068,-4.1061,-4.1111,-4.1115,-4.1113,-4.1232,-4.1253,-4.1322,-4.1197,-4.1535,-4.1545,-4.1553,-4.1636,-4.1655,-4.1671,0,0,0,0,0,-4.078,-4.0892,-4.0875,-4.0899,-4.1015,-4.1112,-4.1127,-4.1123,-4.1074,-4.1128,-4.1147,-4.1113,-4.1303,-4.1244,-4.1267,-4.134,-4.1531,-4.1542,-4.1553,-4.1628,-4.1651,-4.167,0,0,0,0,0,0,-4.0849,-4.0898,-4.088,-4.1011,-4.1059,-4.1102,-4.117,-4.1148,-4.1208,-4.1198,-4.119,-4.1202,-4.1319,-4.1341,-4.1274,-4.1479,-4.1409,-4.1425,-4.1459,-4.1481,-4.1498,-4.1488,-4.1204,0,0,0,0,0,-4.088,-4.0956,-4.0994,-4.1107,-4.1131,-4.1147,-4.1189,-4.1183,-4.123,-4.1249,-4.1276,-4.1323,-4.1392,-4.1438,-4.1505,-4.1641,-4.165,-4.1702,-4.172,-4.1734,-4.1746,-4.1819,-4.1842,-4.1594,-4.1594,-4.1594,0,0,-4.0943,-4.098,-4.1028,-4.1121,-4.1157,-4.1234,-4.1164,-4.1249,-4.1305,-4.1262,-4.1369,-4.1391,-4.1442,-4.1567,-4.1623,-4.1589,-4.1817,-4.1748,-4.1759,-4.1764,-4.1832,-4.1856,-4.1876,-4.1602,-4.16,-4.1599,0,0,-4.1097,-4.1134,-4.1231,-4.1269,-4.1325,-4.1335,-4.1359,-4.1407,-4.142,-4.1529,-4.1497,-4.1565,-4.1686,-4.1723,-4.1758,-4.193,-4.1901,-4.1952,-4.2041,-4.2111,-4.2131,-4.2148,-4.2207,-4.2228,-4.1966,-4.1966,-4.1966,0,-4.1168,-4.1285,-4.1283,-4.1371,-4.1412,-4.1379,-4.1476,-4.1513,-4.1587,-4.1616,-4.1578,-4.1729,-4.1762,-4.1894,-4.1936,-4.1967,-4.1992,-4.1944,-4.2129,-4.2146,-4.2162,-4.2218,-4.224,-4.1972,-4.1971,-4.1971,-4.197,0,-4.1369,-4.145,-4.1522,-4.1596,-4.1646,-4.1738,-4.1749,-4.18,-4.179,-4.1804,-4.1915,-4.1954,-4.2026,-4.2058,-4.2049,-4.219,-4.2167,-4.2129,-4.2058,-4.2191,-4.2243,-4.2265,-4.198,-4.1978,-4.1976,-4.1975,0,0,-4.1565,-4.1639,-4.1665,-4.1698,-4.1759,-4.1821,-4.1912,-4.1985,-4.2028,-4.2081,-4.2155,-4.226,-4.2226,-4.2266,-4.2261,-4.2324,-4.2456,-4.2279,-4.228,-4.2307,-4.2611,-4.2636,-4.2661,-4.2439,-4.2443,-4.2446,-4.2605,0,-4.1721,-4.188,-4.1883,-4.2029,-4.2103,-4.2075,-4.2153,-4.2199,-4.2215,-4.228,-4.2298,-4.2371,-4.2322,-4.2346,-4.2407,-4.2427,-4.2516,-4.2416,-4.2505,-4.2508,-4.2489,-4.2689,-4.2715,-4.2864,-4.2626,-4.263,-4.2632,0,-4.1923,-4.1985,-4.2138,-4.2189,-4.222,-4.2291,-4.2358,-4.2422,-4.2472,-4.248,-4.2526,-4.2513,-4.2604,-4.2535,-4.2659,-4.2591,-4.2629,-4.2644,-4.265,-4.2655,-4.2575,-4.2695,-4.2911,-4.2932,-4.2665,-4.2662,-4.266,0,-4.2047,-4.2169,-4.2276,-4.2306,-4.2368,-4.2418,-4.2446,-4.2493,-4.2537,-4.2597,-4.2625,-4.2694,-4.2731,-4.2784,-4.2789,-4.2738,-4.2914,-4.2845,-4.2921,-4.2921,-4.2955,-4.2952,-4.3176,-4.2986,-4.2986,-4.2985,-4.2985,0,-4.2218,-4.2313,-4.2333,-4.2398,-4.2503,-4.2506,-4.2609,-4.2633,-4.2675,-4.2744,-4.2725,-4.279,-4.2794,-4.2861,-4.2866,-4.2967,-4.2985,-4.2992,-4.2991,-4.2992,-4.299,-4.3012,-4.3001,-4.2991,-4.299,-4.2989,-4.2988,0,-4.2372,-4.239,-4.2505,-4.2556,-4.2571,-4.2645,-4.2688,-4.275,-4.2767,-4.2854,-4.2875,-4.29,-4.2977,-4.2989,-4.308,-4.3083,-4.3204,-4.3195,-4.3187,-4.3184,-4.3258,-4.3249,-4.35,-4.3532,-4.3325,-4.3327,-4.3329,0,-4.2478,-4.255,-4.261,-4.2656,-4.2687,-4.2761,-4.2806,-4.2812,-4.286,-4.2925,-4.2979,-4.3056,-4.3116,-4.3241,-4.3266,-4.3336,-4.3325,-4.3409,-4.3335,-4.3333,-4.3323,-4.3317,-4.3323,-4.3421,-4.3424,-4.3426,-4.3427,0,-4.2664,-4.2669,-4.2736,-4.2808,-4.2863,-4.2919,-4.2971,-4.301,-4.3023,-4.3078,-4.3158,-4.3205,-4.3299,-4.3374,-4.3444,-4.3471,-4.3451,-4.3451,-4.3472,-4.347,-4.3461,-4.3464,-4.3221,-4.3444,-4.3442,-4.3441,-4.344,-4.3439,-4.2794,-4.2857,-4.2909,-4.2984,-4.3025,-4.3076,-4.3136,-4.3162,-4.3229,-4.3306,-4.3307,-4.3394,-4.3444,-4.3535,-4.3568,-4.3636,-4.3608,-4.3639,-4.3646,-4.3652,-4.3658,-4.3455,-4.3649,-4.3648,-4.3648,-4.3648,-4.3647,0,-4.2975,-4.3008,-4.3078,-4.3153,-4.3213,-4.3193,-4.3251,-4.3301,-4.3379,-4.3428,-4.3489,-4.3581,-4.3655,-4.3687,-4.3759,-4.3807,-4.38,-4.3826,-4.382,-4.3826,-4.368,-4.3653,-4.383,-4.383,-4.383,-4.383,-4.383,-4.383,-4.3076,-4.318,-4.3193,-4.3318,-4.335,-4.3436,-4.347,-4.3516,-4.3556,-4.366,-4.3721,-4.3744,-4.3786,-4.3862,-4.3928,-4.3936,-4.3961,-4.3991,-4.3994,-4.3855,-4.3836,-4.3818,-4.3793,-4.3997,-4.3998,-4.4134,-4.4135,-4.4136]},{"header":{"parameterUnit":"m.s-1","parameterCategory":1,"la1":30.2991,"la2":30.254,"lo1":-89.0895,"lo2":-89.0444,"dy":0.0017,"dx":0.0017,"nx":28,"ny":28,"refTime":"2023-09-03T03:00:00:Z","depth":0,"parameterNumber":3,"parameterNumberName":"V-component_of_WINDS"},"data":[0,0,0,0,0,0,0,0,0,0,0,0,0,0,0,0,0,0,0,0,0,0,0,0,0,0,0,0,0,0,0,0,0,0,0,0,0,0,0,0,0,0,0,0,0,0,0,0,0,0,0,0,0,0,0,0,0,0,0.1316,0.1314,0,0.1213,0.1212,0.1211,0.1127,0.1126,0.1125,0.1125,0.1018,0.1016,0.1014,0,0,0,0,0,0,0,0,0,0,0,0,0,0.1438,0.1436,0.1316,0.1314,0.1313,0.1213,0.1212,0.121,0.1127,0.1126,0.1125,0.1124,0.1018,0.1016,0.1013,0,0,0,0,0,0,0,0,0,0,0,0,0,0.1365,0.1436,0.1316,0.126,0.1254,0.1213,0.1212,0.121,0.1128,0.1126,0.1125,0.1124,0.1019,0.1016,0.1013,0.102,0,0,0.1004,0.1002,0,0,0,0,0,0,0,0,0.1369,0.1361,0.1269,0.1263,0.1257,0.1182,0.1215,0.1146,0.1128,0.1175,0.1125,0.1123,0.1073,0.1065,0.1049,0.1015,0.101,0.1003,0.1002,0.1,0.0999,0,0,0,0,0,0,0,0.1375,0.1365,0.1275,0.1268,0.126,0.1239,0.1227,0.1202,0.1133,0.1171,0.1165,0.1154,0.1069,0.1052,0.1046,0.1009,0.1003,0.1001,0.0999,0.0998,0.0974,0.0976,0,0,0,0,0,0,0.1389,0.1369,0.1278,0.1272,0.1311,0.1238,0.1225,0.1207,0.1133,0.112,0.1155,0.115,0.1058,0.105,0.1042,0.1045,0.1,0.0997,0.0996,0.0973,0.0975,0.0976,0,0,0,0,0,0,0.1392,0.1381,0.1282,0.1319,0.1305,0.1237,0.1218,0.1206,0.1188,0.1121,0.1108,0.115,0.1057,0.1046,0.1026,0.104,0.0996,0.0993,0.0972,0.0974,0.0975,0.1051,0,0,0,0,0,0,0.1395,0.1383,0.1385,0.132,0.1303,0.1269,0.1219,0.1204,0.1183,0.1176,0.1113,0.1101,0.1055,0.1031,0.1023,0.1035,0.0991,0.097,0.0973,0.0975,0.1047,0.1055,0.1062,0,0,0,0,0,0.14,0.141,0.1386,0.1375,0.1305,0.127,0.126,0.1208,0.1185,0.1186,0.1143,0.1103,0.104,0.103,0.102,0.1031,0.0969,0.0972,0.0975,0.1043,0.1053,0.1062,0,0,0,0,0,0,0.1478,0.14,0.1372,0.1362,0.1323,0.1256,0.1256,0.122,0.1187,0.1181,0.1117,0.1103,0.109,0.1058,0.1049,0.1033,0.0999,0.1,0.1055,0.1064,0.1071,0.1079,0.0988,0,0,0,0,0,0.1495,0.1474,0.1406,0.1403,0.1385,0.1325,0.1307,0.127,0.1227,0.1211,0.1165,0.1125,0.1096,0.1078,0.1047,0.1042,0.1026,0.1044,0.1052,0.1059,0.106,0.1055,0.1062,0.0985,0.0985,0.0985,0,0,0.1527,0.1482,0.1473,0.1418,0.1384,0.1363,0.1311,0.1291,0.1275,0.1207,0.1186,0.1151,0.1102,0.1089,0.1081,0.1062,0.1078,0.1062,0.1068,0.1066,0.1058,0.1066,0.1072,0.0987,0.0987,0.0986,0,0,0.1577,0.1541,0.1534,0.1501,0.145,0.1409,0.1408,0.1346,0.1321,0.1299,0.1247,0.1226,0.1178,0.1145,0.1121,0.1158,0.112,0.115,0.119,0.1185,0.1192,0.1197,0.121,0.1215,0.1152,0.1152,0.1152,0,0.1624,0.1591,0.1535,0.1519,0.1496,0.1434,0.1427,0.1397,0.1339,0.1324,0.1304,0.1241,0.1203,0.1182,0.1191,0.1175,0.1171,0.1157,0.1195,0.12,0.1204,0.1215,0.1221,0.1156,0.1156,0.1155,0.1155,0,0.1652,0.163,0.163,0.1576,0.1553,0.1542,0.1484,0.1467,0.1432,0.1393,0.1371,0.1324,0.1283,0.1275,0.124,0.1248,0.1238,0.1208,0.1172,0.1216,0.1226,0.123,0.1162,0.116,0.1159,0.1158,0,0,0.1748,0.1663,0.1664,0.1639,0.1578,0.156,0.1545,0.1505,0.1492,0.1454,0.144,0.14,0.1371,0.1345,0.1306,0.1302,0.1334,0.1271,0.1269,0.1285,0.134,0.1364,0.137,0.1309,0.1309,0.131,0.1345,0,0.1787,0.1758,0.1707,0.1694,0.1673,0.1614,0.1601,0.1562,0.1525,0.1502,0.1461,0.1434,0.1398,0.1382,0.1375,0.1332,0.1345,0.1329,0.1294,0.1294,0.1309,0.1375,0.14,0.1435,0.1348,0.1349,0.1349,0,0.183,0.1796,0.1781,0.1722,0.1711,0.17,0.166,0.1638,0.1592,0.1566,0.1537,0.1494,0.1475,0.1442,0.1415,0.1405,0.1388,0.1364,0.1364,0.1359,0.1324,0.1372,0.1445,0.1451,0.1355,0.1354,0.1354,0,0.1902,0.1852,0.1836,0.1816,0.1747,0.1741,0.1711,0.1665,0.1644,0.1608,0.1594,0.1557,0.1536,0.1508,0.1456,0.1437,0.1434,0.1397,0.1411,0.1412,0.1413,0.1414,0.1485,0.1402,0.1402,0.1402,0.1402,0,0.1952,0.1945,0.1868,0.1858,0.1849,0.179,0.1782,0.1747,0.1706,0.1688,0.1634,0.1619,0.1551,0.1527,0.1487,0.147,0.1461,0.1439,0.1428,0.1443,0.1446,0.1431,0.1428,0.1403,0.1403,0.1403,0.1403,0,0.203,0.1978,0.1958,0.1894,0.1877,0.1873,0.1818,0.1806,0.1767,0.1745,0.1736,0.1674,0.1643,0.1589,0.1542,0.1515,0.1506,0.1488,0.1522,0.1515,0.1533,0.1532,0.1597,0.1602,0.1517,0.1518,0.1518,0,0.2066,0.2059,0.1994,0.1979,0.1952,0.1928,0.1906,0.1848,0.1828,0.1776,0.1771,0.1736,0.1705,0.1659,0.1609,0.1573,0.1553,0.1578,0.1547,0.1563,0.1553,0.1555,0.1554,0.1585,0.1587,0.1588,0.1588,0,0.2134,0.2109,0.2081,0.2044,0.202,0.1988,0.1953,0.1943,0.1877,0.1857,0.1825,0.1802,0.1754,0.1721,0.1678,0.1646,0.1607,0.1599,0.16,0.1616,0.1636,0.1626,0.1541,0.1597,0.1597,0.1596,0.1595,0.1595,0.2192,0.2183,0.2137,0.2107,0.2075,0.2043,0.2029,0.1988,0.1961,0.1918,0.1885,0.1856,0.181,0.1749,0.172,0.1696,0.1677,0.1679,0.168,0.1681,0.1687,0.164,0.1688,0.1687,0.1687,0.1687,0.1686,0,0.2258,0.2225,0.2198,0.2151,0.2128,0.2093,0.2052,0.2035,0.201,0.1971,0.1942,0.1905,0.1872,0.182,0.1782,0.1773,0.1754,0.1765,0.1765,0.1759,0.1706,0.1709,0.1781,0.1781,0.1781,0.1781,0.1781,0.1781,0.2289,0.2273,0.2242,0.2209,0.2175,0.2147,0.2127,0.2097,0.2066,0.2028,0.2,0.1966,0.1922,0.1881,0.1848,0.1834,0.1822,0.184,0.1819,0.1771,0.1762,0.1754,0.1756,0.1838,0.1838,0.1874,0.1874,0.1875]}]]